User: anonymous   Login
Location: Newark
(49.8969°N, 3.3422°E)
Time: 01:09:19
(UTC+00:00)
Language:

Explorer 7 - Orbit

View from above orbital plane
View from above orbital plane
View from above satellite
View from above satellite

Ground track
Ground track

The orbit data is extracted from the following two-line orbital elements,

1 00022U 59009A   21016.56026411 -.00000059  00000-0  18893-4 0  9990
2 00022  50.2827 182.0106 0138883 353.0839   6.8190 14.95382859502252
Epoch (UTC): 16 January 2021 13:26:46
Eccentricity: 0.0138883
inclination: 50.2827°
perigee height: 484 km
apogee height: 678 km
right ascension of ascending node: 182.0106°
argument of perigee: 353.0839°
revolutions per day: 14.95382859
mean anomaly at epoch: 6.8190°
orbit number at epoch: 50225

The dashed part of the orbit path shows where the satellite is in the earth's shadow,  

DLR